AVA225 SKBO-SYCJ

Flight info

Callsign AVA225
Flight time 2h 47m
Altitude 35000
Route OSUSU4R AKROB DCT AUC DCT SFD UP549 VUNAR DCT LIKEV DCT
Aircraft A320/M-SDE3FGHIRWY/LB1

Departure

Time 2026-05-06 16:05
Airport El Dorado International Airport (SKBO)

Arrival

Time 2026-05-06 18:53
Airport Cheddi Jagan International Airport (SYCJ)
Time Latitude Longitude Altitude Speed Heading
2026-05-06 15:38 4.69474 -74.13451 8366 ft 0 kts 128°
2026-05-06 15:55 4.69484 -74.13464 8366 ft 4 kts 103°
2026-05-06 15:55 4.69480 -74.13485 8366 ft 3 kts 40°
2026-05-06 15:56 4.69478 -74.13487 8366 ft 0 kts 38°
2026-05-06 15:59 4.69509 -74.13478 8366 ft 11 kts 15°
2026-05-06 15:59 4.69581 -74.13459 8366 ft 9 kts 340°
2026-05-06 15:59 4.69645 -74.13531 8366 ft 21 kts 307°
2026-05-06 16:00 4.69730 -74.13634 8366 ft 14 kts 327°
2026-05-06 16:00 4.69810 -74.13599 8366 ft 13 kts 37°
2026-05-06 16:00 4.69885 -74.13611 8366 ft 13 kts 309°
2026-05-06 16:00 4.69962 -74.13713 8366 ft 24 kts 307°
2026-05-06 16:01 4.70065 -74.13849 8366 ft 25 kts 306°
2026-05-06 16:01 4.70171 -74.13989 8365 ft 25 kts 307°
2026-05-06 16:01 4.70274 -74.14125 8365 ft 24 kts 307°
2026-05-06 16:01 4.70374 -74.14259 8366 ft 24 kts 307°
2026-05-06 16:02 4.70471 -74.14386 8366 ft 22 kts 307°
2026-05-06 16:02 4.70567 -74.14512 8366 ft 25 kts 307°
2026-05-06 16:02 4.70681 -74.14663 8366 ft 27 kts 307°
2026-05-06 16:02 4.70795 -74.14813 8366 ft 27 kts 307°
2026-05-06 16:03 4.70907 -74.14963 8366 ft 27 kts 307°
2026-05-06 16:03 4.71019 -74.15110 8366 ft 26 kts 307°
2026-05-06 16:03 4.71107 -74.15208 8367 ft 13 kts 336°
2026-05-06 16:03 4.71205 -74.15222 8366 ft 14 kts 354°
2026-05-06 16:04 4.71299 -74.15216 8366 ft 14 kts 28°
2026-05-06 16:04 4.71293 -74.15144 8365 ft 6 kts 127°
2026-05-06 16:04 4.71253 -74.15092 8365 ft 21 kts 127°
2026-05-06 16:04 4.71018 -74.14780 8365 ft 89 kts 127°
2026-05-06 16:05 4.70526 -74.14131 8366 ft 143 kts 127°
2026-05-06 16:05 4.69841 -74.13217 8457 ft 180 kts 126°
2026-05-06 16:05 4.69060 -74.12189 9013 ft 188 kts 124°
2026-05-06 16:05 4.68673 -74.10966 9778 ft 190 kts 84°
2026-05-06 16:06 4.69245 -74.09761 10016 ft 207 kts 43°
2026-05-06 16:06 4.70600 -74.09085 10168 ft 229 kts 22°
2026-05-06 16:06 4.72160 -74.08532 10363 ft 243 kts 23°
2026-05-06 16:06 4.73772 -74.07958 10700 ft 247 kts 21°
2026-05-06 16:07 4.75416 -74.07445 11149 ft 247 kts 19°
2026-05-06 16:07 4.77078 -74.06935 11639 ft 251 kts 21°
2026-05-06 16:07 4.78750 -74.06411 12199 ft 253 kts 22°
2026-05-06 16:07 4.80496 -74.05846 12346 ft 275 kts 22°
2026-05-06 16:08 4.82387 -74.05219 12473 ft 298 kts 22°
2026-05-06 16:08 4.84426 -74.04537 12584 ft 320 kts 21°
2026-05-06 16:08 4.86607 -74.03803 12710 ft 341 kts 21°
2026-05-06 16:08 4.88921 -74.03020 12904 ft 358 kts 21°
2026-05-06 16:09 4.91306 -74.02216 13368 ft 365 kts 21°
2026-05-06 16:09 4.93726 -74.01401 13942 ft 368 kts 21°
2026-05-06 16:09 4.96168 -74.00578 14478 ft 372 kts 21°
2026-05-06 16:09 4.98623 -73.99749 15002 ft 373 kts 22°
2026-05-06 16:10 5.01058 -73.98925 15538 ft 375 kts 22°
2026-05-06 16:10 5.03556 -73.98140 16068 ft 378 kts 19°
2026-05-06 16:10 5.06113 -73.97455 16573 ft 381 kts 17°
2026-05-06 16:10 5.08713 -73.96826 16904 ft 384 kts 16°
2026-05-06 16:11 5.11311 -73.96225 16904 ft 383 kts 16°
2026-05-06 16:11 5.13913 -73.95625 16860 ft 382 kts 17°
2026-05-06 16:11 5.16501 -73.95013 16865 ft 382 kts 17°
2026-05-06 16:11 5.19082 -73.94385 16865 ft 382 kts 18°
2026-05-06 16:12 5.21541 -73.93448 16863 ft 376 kts 32°
2026-05-06 16:12 5.23003 -73.92521 16898 ft 373 kts 41°
2026-05-06 16:12 5.24868 -73.90748 16906 ft 368 kts 53°
2026-05-06 16:12 5.26263 -73.88598 17274 ft 369 kts 65°
2026-05-06 16:13 5.27158 -73.86195 17776 ft 367 kts 77°
2026-05-06 16:13 5.27788 -73.83704 18258 ft 371 kts 77°
2026-05-06 16:13 5.28425 -73.81178 18694 ft 374 kts 77°
2026-05-06 16:13 5.29062 -73.78644 19133 ft 376 kts 76°
2026-05-06 16:14 5.29703 -73.76090 19478 ft 380 kts 77°
2026-05-06 16:14 5.30348 -73.73515 19872 ft 381 kts 77°
2026-05-06 16:14 5.30993 -73.70926 20258 ft 384 kts 76°
2026-05-06 16:14 5.31646 -73.68310 20640 ft 386 kts 76°
2026-05-06 16:15 5.32298 -73.65699 21045 ft 388 kts 76°
2026-05-06 16:15 5.32960 -73.63051 21395 ft 391 kts 76°
2026-05-06 16:15 5.33624 -73.60397 21821 ft 392 kts 76°
2026-05-06 16:15 5.34284 -73.57756 22105 ft 397 kts 76°
2026-05-06 16:16 5.34956 -73.55058 22506 ft 398 kts 76°
2026-05-06 16:16 5.35628 -73.52359 22824 ft 401 kts 76°
2026-05-06 16:16 5.36305 -73.49627 23099 ft 405 kts 76°
2026-05-06 16:16 5.36988 -73.46880 23461 ft 407 kts 76°
2026-05-06 16:17 5.37713 -73.44122 23744 ft 411 kts 72°
2026-05-06 16:17 5.38830 -73.41481 24048 ft 413 kts 62°
2026-05-06 16:17 5.40343 -73.39007 24250 ft 417 kts 58°
2026-05-06 16:17 5.41905 -73.36547 24551 ft 418 kts 58°
2026-05-06 16:18 5.43469 -73.34074 24809 ft 421 kts 58°
2026-05-06 16:18 5.45038 -73.31585 25103 ft 422 kts 58°
2026-05-06 16:18 5.46610 -73.29090 25376 ft 424 kts 58°
2026-05-06 16:18 5.48192 -73.26578 25658 ft 426 kts 58°
2026-05-06 16:19 5.49778 -73.24058 25896 ft 428 kts 59°
2026-05-06 16:19 5.51371 -73.21528 26177 ft 429 kts 59°
2026-05-06 16:19 5.52972 -73.18990 26424 ft 431 kts 59°
2026-05-06 16:19 5.54579 -73.16437 26676 ft 433 kts 58°
2026-05-06 16:20 5.56187 -73.13875 26911 ft 435 kts 59°
2026-05-06 16:20 5.57807 -73.11298 27172 ft 437 kts 58°
2026-05-06 16:20 5.59436 -73.08711 27406 ft 439 kts 59°
2026-05-06 16:20 5.61069 -73.06118 27659 ft 441 kts 58°
2026-05-06 16:21 5.62710 -73.03511 27918 ft 442 kts 58°
2026-05-06 16:21 5.64357 -73.00894 28171 ft 444 kts 59°
2026-05-06 16:21 5.66011 -72.98268 28429 ft 445 kts 59°
2026-05-06 16:21 5.67670 -72.95633 28625 ft 448 kts 58°
2026-05-06 16:22 5.69335 -72.92985 28861 ft 449 kts 59°
2026-05-06 16:22 5.71007 -72.90326 29065 ft 451 kts 58°
2026-05-06 16:22 5.72681 -72.87664 29323 ft 451 kts 59°
2026-05-06 16:22 5.74361 -72.84998 29530 ft 453 kts 58°
2026-05-06 16:23 5.76047 -72.82319 29769 ft 454 kts 58°
2026-05-06 16:23 5.77736 -72.79632 29956 ft 455 kts 59°
2026-05-06 16:23 5.79406 -72.76973 30170 ft 457 kts 58°
2026-05-06 16:23 5.81126 -72.74236 30364 ft 458 kts 59°
2026-05-06 16:24 5.82806 -72.71558 30485 ft 460 kts 58°
2026-05-06 16:24 5.84515 -72.68833 30599 ft 463 kts 59°
2026-05-06 16:24 5.86240 -72.66081 30720 ft 466 kts 58°
2026-05-06 16:24 5.87968 -72.63325 30917 ft 467 kts 59°
2026-05-06 16:25 5.89700 -72.60568 31130 ft 467 kts 58°
2026-05-06 16:25 5.91432 -72.57817 31407 ft 466 kts 58°
2026-05-06 16:25 5.93163 -72.55071 31658 ft 465 kts 58°
2026-05-06 16:25 5.94889 -72.52328 31923 ft 464 kts 58°
2026-05-06 16:26 5.96614 -72.49581 32170 ft 464 kts 58°
2026-05-06 16:26 5.98332 -72.46839 32425 ft 463 kts 58°
2026-05-06 16:26 6.00049 -72.44100 32684 ft 463 kts 58°
2026-05-06 16:26 6.01763 -72.41366 32941 ft 462 kts 58°
2026-05-06 16:27 6.03472 -72.38634 33172 ft 461 kts 58°
2026-05-06 16:27 6.05180 -72.35909 33405 ft 461 kts 58°
2026-05-06 16:27 6.06888 -72.33192 33685 ft 460 kts 58°
2026-05-06 16:27 6.08598 -72.30468 33918 ft 460 kts 58°
2026-05-06 16:28 6.10302 -72.27752 34213 ft 459 kts 58°
2026-05-06 16:28 6.12004 -72.25041 34418 ft 458 kts 58°
2026-05-06 16:28 6.13702 -72.22335 34644 ft 458 kts 58°
2026-05-06 16:28 6.15400 -72.19623 34846 ft 458 kts 59°
2026-05-06 16:29 6.17072 -72.16944 35030 ft 458 kts 58°
2026-05-06 16:29 6.18762 -72.14235 35130 ft 457 kts 58°
2026-05-06 16:29 6.22152 -72.08825 35113 ft 456 kts 58°
2026-05-06 16:30 6.24964 -72.04335 35145 ft 456 kts 58°
2026-05-06 16:30 6.28912 -71.98033 35144 ft 456 kts 58°
2026-05-06 16:31 6.32293 -71.92645 35082 ft 456 kts 58°
2026-05-06 16:31 6.35667 -71.87249 35106 ft 456 kts 58°
2026-05-06 16:32 6.39043 -71.81839 35096 ft 457 kts 59°
2026-05-06 16:32 6.42432 -71.76421 35109 ft 458 kts 59°
2026-05-06 16:33 6.45821 -71.70998 35110 ft 458 kts 59°
2026-05-06 16:34 6.50917 -71.62848 35094 ft 459 kts 58°
2026-05-06 16:34 6.54306 -71.57417 35075 ft 459 kts 59°
2026-05-06 16:35 6.57703 -71.51974 35030 ft 460 kts 59°
2026-05-06 16:35 6.61106 -71.46517 35002 ft 461 kts 59°
2026-05-06 16:36 6.64522 -71.41047 34995 ft 462 kts 58°
2026-05-06 16:36 6.67941 -71.35573 34994 ft 462 kts 59°
2026-05-06 16:37 6.71361 -71.30094 35004 ft 462 kts 58°
2026-05-06 16:37 6.74778 -71.24613 35006 ft 463 kts 58°
2026-05-06 16:38 6.78193 -71.19128 35007 ft 463 kts 59°
2026-05-06 16:38 6.81610 -71.13641 35009 ft 463 kts 58°
2026-05-06 16:39 6.85012 -71.08189 35007 ft 463 kts 59°
2026-05-06 16:39 6.88429 -71.02703 35008 ft 463 kts 59°
2026-05-06 16:40 6.91841 -70.97213 35016 ft 463 kts 59°
2026-05-06 16:40 6.95260 -70.91716 35014 ft 462 kts 59°
2026-05-06 16:41 6.98673 -70.86229 35012 ft 463 kts 59°
2026-05-06 16:41 7.02089 -70.80730 35001 ft 463 kts 58°
2026-05-06 16:42 7.05490 -70.75214 35039 ft 464 kts 62°
2026-05-06 16:42 7.07758 -70.69188 35039 ft 461 kts 77°
2026-05-06 16:43 7.09318 -70.62914 35038 ft 462 kts 77°
2026-05-06 16:43 7.10900 -70.56640 35025 ft 462 kts 76°
2026-05-06 16:44 7.12483 -70.50366 35013 ft 463 kts 76°
2026-05-06 16:44 7.14064 -70.44077 35007 ft 463 kts 76°
2026-05-06 16:45 7.15643 -70.37775 35004 ft 464 kts 76°
2026-05-06 16:45 7.17218 -70.31477 35005 ft 464 kts 76°
2026-05-06 16:46 7.18795 -70.25176 35011 ft 464 kts 76°
2026-05-06 16:46 7.20372 -70.18883 35005 ft 463 kts 76°
2026-05-06 16:47 7.21953 -70.12590 35011 ft 463 kts 76°
2026-05-06 16:47 7.23532 -70.06301 35008 ft 463 kts 76°
2026-05-06 16:48 7.25096 -70.00045 35001 ft 463 kts 76°
2026-05-06 16:48 7.26663 -69.93754 34999 ft 464 kts 76°
2026-05-06 16:49 7.28238 -69.87444 35006 ft 464 kts 76°
2026-05-06 16:49 7.29812 -69.81144 35011 ft 463 kts 76°
2026-05-06 16:50 7.31376 -69.74851 35000 ft 463 kts 76°
2026-05-06 16:50 7.32949 -69.68556 34999 ft 463 kts 76°
2026-05-06 16:51 7.34514 -69.62272 34993 ft 462 kts 76°
2026-05-06 16:51 7.36082 -69.55988 34986 ft 462 kts 76°
2026-05-06 16:52 7.37645 -69.49700 34992 ft 463 kts 76°
2026-05-06 16:52 7.39206 -69.43406 34984 ft 463 kts 77°
2026-05-06 16:53 7.40775 -69.37104 34979 ft 464 kts 77°
2026-05-06 16:53 7.42072 -69.31867 34979 ft 464 kts 76°
2026-05-06 16:54 7.43640 -69.25558 34988 ft 464 kts 77°
2026-05-06 16:54 7.45458 -69.18219 34989 ft 464 kts 77°
2026-05-06 16:55 7.46763 -69.12922 34984 ft 465 kts 77°
2026-05-06 16:55 7.48318 -69.06633 34983 ft 466 kts 77°
2026-05-06 16:56 7.49897 -69.00298 34985 ft 466 kts 76°
2026-05-06 16:56 7.51480 -68.93923 34985 ft 466 kts 77°
2026-05-06 16:57 7.53028 -68.87627 34978 ft 466 kts 77°
2026-05-06 16:57 7.54590 -68.81280 34981 ft 467 kts 77°
2026-05-06 16:58 7.56169 -68.74884 34979 ft 468 kts 77°
2026-05-06 16:58 7.57744 -68.68514 34985 ft 469 kts 77°
2026-05-06 16:59 7.59315 -68.62140 34989 ft 469 kts 77°
2026-05-06 16:59 7.60879 -68.55803 34986 ft 469 kts 77°
2026-05-06 17:00 7.62451 -68.49419 34986 ft 469 kts 77°
2026-05-06 17:00 7.64016 -68.43026 34979 ft 469 kts 77°
2026-05-06 17:01 7.65584 -68.36636 34985 ft 470 kts 77°
2026-05-06 17:01 7.67166 -68.30221 34979 ft 470 kts 77°
2026-05-06 17:02 7.68742 -68.23825 34986 ft 470 kts 77°
2026-05-06 17:02 7.70317 -68.17424 34982 ft 470 kts 77°
2026-05-06 17:03 7.71879 -68.11014 34982 ft 471 kts 77°
2026-05-06 17:03 7.73448 -68.04602 34981 ft 471 kts 77°
2026-05-06 17:04 7.75009 -67.98227 34980 ft 471 kts 77°
2026-05-06 17:04 7.76583 -67.91814 34980 ft 471 kts 77°
2026-05-06 17:05 7.78151 -67.85396 34978 ft 472 kts 77°
2026-05-06 17:05 7.79721 -67.78974 34980 ft 471 kts 77°
2026-05-06 17:06 7.81294 -67.72557 34986 ft 471 kts 77°
2026-05-06 17:06 7.82862 -67.66137 34983 ft 471 kts 77°
2026-05-06 17:07 7.84417 -67.59713 34979 ft 471 kts 77°
2026-05-06 17:07 7.85980 -67.53284 34978 ft 471 kts 76°
2026-05-06 17:08 7.87503 -67.46847 34983 ft 472 kts 81°
2026-05-06 17:08 7.87633 -67.40274 34972 ft 469 kts 99°
2026-05-06 17:09 7.86501 -67.33801 34973 ft 469 kts 101°
2026-05-06 17:09 7.85367 -67.27363 34973 ft 469 kts 101°
2026-05-06 17:10 7.84234 -67.20868 34975 ft 469 kts 101°
2026-05-06 17:10 7.83099 -67.14378 34954 ft 470 kts 101°
2026-05-06 17:11 7.81950 -67.07885 34955 ft 470 kts 101°
2026-05-06 17:11 7.80794 -67.01395 34958 ft 470 kts 101°
2026-05-06 17:12 7.79640 -66.94897 34960 ft 471 kts 101°
2026-05-06 17:12 7.78499 -66.88393 34961 ft 471 kts 100°
2026-05-06 17:13 7.77353 -66.81895 34959 ft 471 kts 101°
2026-05-06 17:13 7.76194 -66.75393 34961 ft 471 kts 101°
2026-05-06 17:14 7.75037 -66.68885 34954 ft 472 kts 102°
2026-05-06 17:14 7.73891 -66.62413 34958 ft 472 kts 101°
2026-05-06 17:15 7.72738 -66.55896 34963 ft 472 kts 100°
2026-05-06 17:15 7.71573 -66.49380 34957 ft 472 kts 101°
2026-05-06 17:16 7.70405 -66.42865 34958 ft 473 kts 101°
2026-05-06 17:16 7.69243 -66.36340 34961 ft 473 kts 101°
2026-05-06 17:17 7.68086 -66.29812 34959 ft 473 kts 100°
2026-05-06 17:17 7.66923 -66.23278 34961 ft 473 kts 101°
2026-05-06 17:18 7.65760 -66.16781 34960 ft 474 kts 101°
2026-05-06 17:18 7.64588 -66.10244 34961 ft 474 kts 101°
2026-05-06 17:19 7.63416 -66.03703 34962 ft 475 kts 100°
2026-05-06 17:19 7.62242 -65.97156 34973 ft 474 kts 100°
2026-05-06 17:20 7.61074 -65.90617 34964 ft 474 kts 100°
2026-05-06 17:20 7.59896 -65.84074 34965 ft 474 kts 101°
2026-05-06 17:21 7.58708 -65.77531 34965 ft 474 kts 100°
2026-05-06 17:21 7.57529 -65.70984 34970 ft 475 kts 101°
2026-05-06 17:22 7.56353 -65.64437 34971 ft 475 kts 101°
2026-05-06 17:22 7.55177 -65.57889 34977 ft 475 kts 101°
2026-05-06 17:23 7.53994 -65.51332 34978 ft 475 kts 101°
2026-05-06 17:23 7.52802 -65.44780 34974 ft 476 kts 101°
2026-05-06 17:24 7.51616 -65.38211 34978 ft 475 kts 100°
2026-05-06 17:24 7.50442 -65.31654 34973 ft 475 kts 101°
2026-05-06 17:25 7.49248 -65.25097 34975 ft 475 kts 101°
2026-05-06 17:25 7.48054 -65.18551 34971 ft 475 kts 101°
2026-05-06 17:26 7.46875 -65.12006 34968 ft 474 kts 100°
2026-05-06 17:26 7.45691 -65.05470 34964 ft 474 kts 101°
2026-05-06 17:27 7.44508 -64.98974 34960 ft 474 kts 101°
2026-05-06 17:27 7.43318 -64.92441 34955 ft 474 kts 101°
2026-05-06 17:28 7.42124 -64.85898 34952 ft 474 kts 101°
2026-05-06 17:28 7.40930 -64.79357 34950 ft 475 kts 101°
2026-05-06 17:29 7.39739 -64.72811 34957 ft 475 kts 101°
2026-05-06 17:29 7.38548 -64.66269 34956 ft 475 kts 101°
2026-05-06 17:30 7.37353 -64.59724 34954 ft 475 kts 101°
2026-05-06 17:30 7.36153 -64.53174 34959 ft 475 kts 101°
2026-05-06 17:31 7.34956 -64.46637 34967 ft 475 kts 101°
2026-05-06 17:31 7.33758 -64.40094 34960 ft 475 kts 101°
2026-05-06 17:32 7.32563 -64.33558 34962 ft 475 kts 101°
2026-05-06 17:32 7.31370 -64.27010 34958 ft 475 kts 101°
2026-05-06 17:33 7.30176 -64.20497 34957 ft 476 kts 101°
2026-05-06 17:33 7.28967 -64.13933 34963 ft 477 kts 101°
2026-05-06 17:34 7.27757 -64.07358 34969 ft 477 kts 101°
2026-05-06 17:34 7.26548 -64.00785 34967 ft 477 kts 101°
2026-05-06 17:35 7.25342 -63.94212 34967 ft 477 kts 101°
2026-05-06 17:35 7.24128 -63.87643 34972 ft 477 kts 101°
2026-05-06 17:36 7.22309 -63.77791 34972 ft 477 kts 101°
2026-05-06 17:36 7.21104 -63.71220 34973 ft 477 kts 101°
2026-05-06 17:37 7.20097 -63.65759 34967 ft 477 kts 101°
2026-05-06 17:37 7.18877 -63.59190 34978 ft 477 kts 101°
2026-05-06 17:38 7.17653 -63.52616 34976 ft 478 kts 101°
2026-05-06 17:38 7.16438 -63.46041 34971 ft 478 kts 101°
2026-05-06 17:39 7.15223 -63.39468 34979 ft 477 kts 101°
2026-05-06 17:39 7.14008 -63.32906 34982 ft 476 kts 101°
2026-05-06 17:40 7.12791 -63.26347 34972 ft 476 kts 101°
2026-05-06 17:40 7.11574 -63.19822 34973 ft 476 kts 101°
2026-05-06 17:41 7.10355 -63.13264 34975 ft 476 kts 101°
2026-05-06 17:41 7.09129 -63.06711 34970 ft 477 kts 101°
2026-05-06 17:42 7.07901 -63.00145 34975 ft 477 kts 101°
2026-05-06 17:42 7.06680 -62.93577 34979 ft 477 kts 101°
2026-05-06 17:43 7.05448 -62.87006 34975 ft 477 kts 101°
2026-05-06 17:43 7.04218 -62.80442 34978 ft 477 kts 101°
2026-05-06 17:44 7.02997 -62.73867 34980 ft 477 kts 101°
2026-05-06 17:44 7.01771 -62.67296 34974 ft 477 kts 101°
2026-05-06 17:45 7.00539 -62.60743 34974 ft 477 kts 101°
2026-05-06 17:45 6.99310 -62.54185 34974 ft 477 kts 101°
2026-05-06 17:46 6.98080 -62.47629 34976 ft 476 kts 101°
2026-05-06 17:46 6.96847 -62.41084 34980 ft 475 kts 101°
2026-05-06 17:47 6.95616 -62.34557 34977 ft 474 kts 101°
2026-05-06 17:47 6.94388 -62.28034 34973 ft 474 kts 101°
2026-05-06 17:48 6.93163 -62.21516 34969 ft 474 kts 101°
2026-05-06 17:48 6.91939 -62.14997 34967 ft 474 kts 101°
2026-05-06 17:49 6.90709 -62.08474 34970 ft 474 kts 101°
2026-05-06 17:49 6.89489 -62.01997 34962 ft 474 kts 102°
2026-05-06 17:50 6.88259 -61.95471 34963 ft 474 kts 102°
2026-05-06 17:50 6.87028 -61.88949 34967 ft 474 kts 101°
2026-05-06 17:51 6.85791 -61.82424 34966 ft 475 kts 102°
2026-05-06 17:51 6.84562 -61.75924 34967 ft 475 kts 102°
2026-05-06 17:52 6.83325 -61.69397 34971 ft 475 kts 102°
2026-05-06 17:52 6.82092 -61.62862 34965 ft 475 kts 102°
2026-05-06 17:53 6.80857 -61.56329 34963 ft 475 kts 102°
2026-05-06 17:53 6.79625 -61.49801 34963 ft 475 kts 101°
2026-05-06 17:54 6.78384 -61.43273 34963 ft 475 kts 102°
2026-05-06 17:54 6.77135 -61.36750 34963 ft 475 kts 102°
2026-05-06 17:55 6.75895 -61.30216 34974 ft 475 kts 101°
2026-05-06 17:55 6.74662 -61.23691 34968 ft 475 kts 102°
2026-05-06 17:56 6.73411 -61.17156 34971 ft 475 kts 102°
2026-05-06 17:56 6.72158 -61.10619 34975 ft 475 kts 102°
2026-05-06 17:57 6.70932 -61.04080 34980 ft 476 kts 98°
2026-05-06 17:57 6.70413 -60.97473 34984 ft 477 kts 95°
2026-05-06 17:58 6.69933 -60.90811 34985 ft 478 kts 96°
2026-05-06 17:58 6.69436 -60.84144 34997 ft 478 kts 96°
2026-05-06 17:59 6.68937 -60.77484 34997 ft 478 kts 95°
2026-05-06 17:59 6.68438 -60.70808 35004 ft 478 kts 95°
2026-05-06 18:00 6.67943 -60.64138 35001 ft 478 kts 95°
2026-05-06 18:00 6.67452 -60.57458 35006 ft 479 kts 96°
2026-05-06 18:01 6.66953 -60.50786 35009 ft 478 kts 95°
2026-05-06 18:01 6.66455 -60.44111 35013 ft 478 kts 95°
2026-05-06 18:02 6.65956 -60.37439 35017 ft 478 kts 95°
2026-05-06 18:02 6.65456 -60.30776 35015 ft 477 kts 95°
2026-05-06 18:03 6.64958 -60.24129 35013 ft 477 kts 95°
2026-05-06 18:03 6.64456 -60.17483 35012 ft 476 kts 95°
2026-05-06 18:04 6.63940 -60.10844 35012 ft 476 kts 95°
2026-05-06 18:04 6.63424 -60.04213 35014 ft 475 kts 95°
2026-05-06 18:05 6.62908 -59.97575 35011 ft 475 kts 95°
2026-05-06 18:05 6.62393 -59.90952 35011 ft 475 kts 95°
2026-05-06 18:06 6.61880 -59.84327 35013 ft 475 kts 95°
2026-05-06 18:06 6.61362 -59.77701 35009 ft 475 kts 95°
2026-05-06 18:07 6.60845 -59.71077 35000 ft 476 kts 95°
2026-05-06 18:07 6.60331 -59.64486 34998 ft 476 kts 95°
2026-05-06 18:08 6.59806 -59.57838 34998 ft 477 kts 95°
2026-05-06 18:08 6.59466 -59.51168 35002 ft 478 kts 86°
2026-05-06 18:09 6.60650 -59.44586 35003 ft 479 kts 78°
2026-05-06 18:09 6.62079 -59.38037 35005 ft 479 kts 78°
2026-05-06 18:10 6.63501 -59.31487 35012 ft 479 kts 78°
2026-05-06 18:10 6.64921 -59.24940 35010 ft 479 kts 78°
2026-05-06 18:11 6.66104 -59.19456 35007 ft 479 kts 78°
2026-05-06 18:11 6.67747 -59.11854 35011 ft 479 kts 78°
2026-05-06 18:12 6.69162 -59.05300 35013 ft 479 kts 78°
2026-05-06 18:12 6.70582 -58.98753 35025 ft 478 kts 78°
2026-05-06 18:13 6.72000 -58.92205 35027 ft 478 kts 78°
2026-05-06 18:13 6.73405 -58.85668 35023 ft 478 kts 78°
2026-05-06 18:14 6.74809 -58.79125 35020 ft 478 kts 78°
2026-05-06 18:14 6.75514 -58.75856 34642 ft 480 kts 78°
2026-05-06 18:14 6.76229 -58.72550 33860 ft 483 kts 78°
2026-05-06 18:15 6.76933 -58.69294 33696 ft 469 kts 78°
2026-05-06 18:15 6.77541 -58.66123 33567 ft 454 kts 86°
2026-05-06 18:15 6.77513 -58.63009 33434 ft 438 kts 100°
2026-05-06 18:15 6.76782 -58.60096 33303 ft 423 kts 114°
2026-05-06 18:16 6.75443 -58.57532 33191 ft 407 kts 127°
2026-05-06 18:16 6.73629 -58.55398 32727 ft 400 kts 140°
2026-05-06 18:16 6.71366 -58.53748 31929 ft 404 kts 154°
2026-05-06 18:16 6.68776 -58.52670 31312 ft 405 kts 165°
2026-05-06 18:17 6.66030 -58.52177 30626 ft 407 kts 178°
2026-05-06 18:17 6.63198 -58.52317 29917 ft 410 kts 190°
2026-05-06 18:17 6.60447 -58.53117 29125 ft 414 kts 203°
2026-05-06 18:17 6.57935 -58.54540 28352 ft 417 kts 216°
2026-05-06 18:18 6.55802 -58.56526 27603 ft 421 kts 228°
2026-05-06 18:18 6.54177 -58.58979 26864 ft 424 kts 243°
2026-05-06 18:18 6.53102 -58.61747 26157 ft 426 kts 250°
2026-05-06 18:18 6.52274 -58.64614 25461 ft 428 kts 254°
2026-05-06 18:19 6.51600 -58.67528 24785 ft 428 kts 257°
2026-05-06 18:19 6.51009 -58.70468 24123 ft 428 kts 258°
2026-05-06 18:19 6.50626 -58.72454 23684 ft 428 kts 257°
2026-05-06 18:19 6.50080 -58.75397 22930 ft 428 kts 262°
2026-05-06 18:20 6.50024 -58.78352 22179 ft 430 kts 275°
2026-05-06 18:20 6.50634 -58.81296 21442 ft 431 kts 288°
2026-05-06 18:20 6.51901 -58.84020 20720 ft 431 kts 302°
2026-05-06 18:20 6.53777 -58.86361 20015 ft 430 kts 317°
2026-05-06 18:21 6.56155 -58.88165 19321 ft 428 kts 331°
2026-05-06 18:21 6.58878 -58.89334 18654 ft 425 kts 345°
2026-05-06 18:21 6.61778 -58.89818 17940 ft 422 kts 359°
2026-05-06 18:21 6.64689 -58.89616 17179 ft 418 kts 12°
2026-05-06 18:22 6.67450 -58.88750 16441 ft 414 kts 26°
2026-05-06 18:22 6.69912 -58.87278 15715 ft 411 kts 39°
2026-05-06 18:22 6.71951 -58.85290 15010 ft 407 kts 52°
2026-05-06 18:22 6.73479 -58.82904 14318 ft 405 kts 65°
2026-05-06 18:23 6.74494 -58.80271 13616 ft 402 kts 72°
2026-05-06 18:23 6.75266 -58.77575 12868 ft 400 kts 76°
2026-05-06 18:23 6.75889 -58.74849 12245 ft 396 kts 78°
2026-05-06 18:23 6.76421 -58.72186 12045 ft 380 kts 79°
2026-05-06 18:24 6.76916 -58.69642 12001 ft 361 kts 79°
2026-05-06 18:24 6.77390 -58.67235 12013 ft 341 kts 81°
2026-05-06 18:24 6.77422 -58.64922 12020 ft 323 kts 98°
2026-05-06 18:24 6.76772 -58.62817 12013 ft 309 kts 115°
2026-05-06 18:25 6.75569 -58.61079 12019 ft 299 kts 132°
2026-05-06 18:25 6.73929 -58.59807 12019 ft 300 kts 149°
2026-05-06 18:25 6.71994 -58.59086 12018 ft 303 kts 166°
2026-05-06 18:25 6.69879 -58.58984 12018 ft 308 kts 184°
2026-05-06 18:26 6.67806 -58.59551 12016 ft 313 kts 202°
2026-05-06 18:26 6.65987 -58.60757 12018 ft 316 kts 221°
2026-05-06 18:26 6.64622 -58.62495 12014 ft 319 kts 240°
2026-05-06 18:26 6.63817 -58.64574 12017 ft 320 kts 253°
2026-05-06 18:27 6.63243 -58.66742 12014 ft 321 kts 256°
2026-05-06 18:27 6.62757 -58.68933 12010 ft 321 kts 258°
2026-05-06 18:27 6.62302 -58.71132 12010 ft 321 kts 258°
2026-05-06 18:27 6.61847 -58.73333 12012 ft 322 kts 257°
2026-05-06 18:28 6.61605 -58.75567 12009 ft 321 kts 274°
2026-05-06 18:28 6.62051 -58.77753 12014 ft 319 kts 293°
2026-05-06 18:28 6.63145 -58.79677 12015 ft 316 kts 311°
2026-05-06 18:28 6.64758 -58.81145 12012 ft 312 kts 330°
2026-05-06 18:29 6.66718 -58.82028 12012 ft 308 kts 349°
2026-05-06 18:29 6.68829 -58.82260 12012 ft 304 kts
2026-05-06 18:29 6.70878 -58.81845 12013 ft 299 kts 24°
2026-05-06 18:29 6.72685 -58.80840 12013 ft 295 kts 40°
2026-05-06 18:30 6.74095 -58.79367 12013 ft 292 kts 57°
2026-05-06 18:30 6.75010 -58.77558 12010 ft 290 kts 72°
2026-05-06 18:30 6.75593 -58.75613 12013 ft 291 kts 76°
2026-05-06 18:30 6.76063 -58.73632 12012 ft 291 kts 78°
2026-05-06 18:31 6.76486 -58.71639 12014 ft 291 kts 78°
2026-05-06 18:31 6.76899 -58.69640 12013 ft 291 kts 78°
2026-05-06 18:31 6.77312 -58.67670 12013 ft 291 kts 79°
2026-05-06 18:31 6.77416 -58.65649 12011 ft 291 kts 99°
2026-05-06 18:32 6.76718 -58.63749 12014 ft 293 kts 121°
2026-05-06 18:32 6.75309 -58.62277 12011 ft 297 kts 144°
2026-05-06 18:32 6.73385 -58.61504 12012 ft 303 kts 169°
2026-05-06 18:32 6.71249 -58.61633 12017 ft 309 kts 195°
2026-05-06 18:33 6.69388 -58.62670 12014 ft 315 kts 221°
2026-05-06 18:33 6.68111 -58.64489 12014 ft 319 kts 249°
2026-05-06 18:33 6.67521 -58.66640 12017 ft 320 kts 256°
2026-05-06 18:33 6.67021 -58.68828 12016 ft 321 kts 257°
2026-05-06 18:34 6.66536 -58.71022 12011 ft 321 kts 257°
2026-05-06 18:34 6.66069 -58.73191 12010 ft 321 kts 260°
2026-05-06 18:34 6.66097 -58.75411 12010 ft 319 kts 286°
2026-05-06 18:34 6.67078 -58.77387 12009 ft 316 kts 313°
2026-05-06 18:35 6.68789 -58.78710 12008 ft 310 kts 339°
2026-05-06 18:35 6.70857 -58.79159 12010 ft 303 kts
2026-05-06 18:35 6.72876 -58.78703 12011 ft 297 kts 28°
2026-05-06 18:35 6.74495 -58.77462 12012 ft 293 kts 52°
2026-05-06 18:36 6.75457 -58.75684 12011 ft 290 kts 74°
2026-05-06 18:36 6.75982 -58.73718 12010 ft 291 kts 77°
2026-05-06 18:36 6.76438 -58.71728 12010 ft 291 kts 78°
2026-05-06 18:36 6.76869 -58.69737 12012 ft 292 kts 78°
2026-05-06 18:37 6.77296 -58.67741 12012 ft 291 kts 78°
2026-05-06 18:37 6.77430 -58.65723 12010 ft 291 kts 98°
2026-05-06 18:37 6.76774 -58.63836 12016 ft 293 kts 121°
2026-05-06 18:37 6.75384 -58.62340 12014 ft 297 kts 144°
2026-05-06 18:38 6.73452 -58.61529 12010 ft 303 kts 168°
2026-05-06 18:38 6.71342 -58.61617 12013 ft 309 kts 193°
2026-05-06 18:38 6.69440 -58.62634 12011 ft 315 kts 220°
2026-05-06 18:38 6.68168 -58.64382 12009 ft 319 kts 247°
2026-05-06 18:39 6.67565 -58.66531 12012 ft 320 kts 256°
2026-05-06 18:39 6.67067 -58.68719 12011 ft 321 kts 257°
2026-05-06 18:39 6.66584 -58.70913 12007 ft 321 kts 257°
2026-05-06 18:40 6.66106 -58.75327 12005 ft 320 kts 285°
2026-05-06 18:40 6.67049 -58.77319 12009 ft 316 kts 312°
2026-05-06 18:40 6.68745 -58.78674 12009 ft 310 kts 338°
2026-05-06 18:40 6.70817 -58.79149 12012 ft 303 kts
2026-05-06 18:41 6.72841 -58.78706 12009 ft 297 kts 28°
2026-05-06 18:41 6.74472 -58.77478 12007 ft 293 kts 52°
2026-05-06 18:41 6.75450 -58.75708 12008 ft 291 kts 73°
2026-05-06 18:41 6.75973 -58.73763 12008 ft 291 kts 77°
2026-05-06 18:42 6.76429 -58.71778 12005 ft 291 kts 78°
2026-05-06 18:42 6.76860 -58.69783 12007 ft 292 kts 78°
2026-05-06 18:42 6.77028 -58.67760 12005 ft 292 kts 96°
2026-05-06 18:42 6.76394 -58.65724 12013 ft 322 kts 119°
2026-05-06 18:43 6.74863 -58.64023 11925 ft 336 kts 141°
2026-05-06 18:43 6.72913 -58.62665 11083 ft 348 kts 144°
2026-05-06 18:43 6.70861 -58.61358 10675 ft 343 kts 146°
2026-05-06 18:43 6.68861 -58.60134 10552 ft 329 kts 146°
2026-05-06 18:44 6.66939 -58.58963 10442 ft 317 kts 146°
2026-05-06 18:44 6.65092 -58.57826 10316 ft 306 kts 146°
2026-05-06 18:44 6.63312 -58.56714 10163 ft 296 kts 145°
2026-05-06 18:44 6.61582 -58.55621 9873 ft 293 kts 145°
2026-05-06 18:45 6.59863 -58.54529 9508 ft 291 kts 144°
2026-05-06 18:45 6.58157 -58.53443 9150 ft 290 kts 144°
2026-05-06 18:45 6.56460 -58.52365 8830 ft 287 kts 144°
2026-05-06 18:45 6.55343 -58.51656 8572 ft 286 kts 144°
2026-05-06 18:46 6.53095 -58.50228 8066 ft 285 kts 144°
2026-05-06 18:46 6.51423 -58.49165 7706 ft 283 kts 145°
2026-05-06 18:46 6.49784 -58.48122 7357 ft 282 kts 144°
2026-05-06 18:46 6.48133 -58.47071 7010 ft 280 kts 144°
2026-05-06 18:47 6.46484 -58.46022 6395 ft 281 kts 144°
2026-05-06 18:47 6.44831 -58.44972 5660 ft 281 kts 144°
2026-05-06 18:47 6.43185 -58.43927 4942 ft 280 kts 144°
2026-05-06 18:47 6.41539 -58.42881 4223 ft 278 kts 145°
2026-05-06 18:48 6.39943 -58.41871 3923 ft 261 kts 145°
2026-05-06 18:48 6.38470 -58.40941 3784 ft 239 kts 144°
2026-05-06 18:48 6.37366 -58.39837 3686 ft 216 kts 112°
2026-05-06 18:48 6.37204 -58.38420 3502 ft 205 kts 72°
2026-05-06 18:49 6.37977 -58.37220 3076 ft 211 kts 45°
2026-05-06 18:49 6.39044 -58.36189 2720 ft 213 kts 46°
2026-05-06 18:49 6.40103 -58.35154 2421 ft 210 kts 45°
2026-05-06 18:49 6.41122 -58.34140 2152 ft 202 kts 46°
2026-05-06 18:50 6.42097 -58.33168 1929 ft 193 kts 46°
2026-05-06 18:50 6.43022 -58.32244 1660 ft 180 kts 48°
2026-05-06 18:50 6.43874 -58.31393 1441 ft 166 kts 47°
2026-05-06 18:50 6.44664 -58.30605 1244 ft 151 kts 47°
2026-05-06 18:51 6.45374 -58.29895 1040 ft 138 kts 46°
2026-05-06 18:51 6.46039 -58.29231 870 ft 136 kts 45°
2026-05-06 18:51 6.46695 -58.28576 697 ft 132 kts 46°
2026-05-06 18:51 6.47338 -58.27932 526 ft 131 kts 44°
2026-05-06 18:52 6.47983 -58.27288 360 ft 131 kts 47°
2026-05-06 18:52 6.48623 -58.26658 328 ft 131 kts 47°
2026-05-06 18:52 6.49267 -58.26010 180 ft 132 kts 47°
2026-05-06 18:52 6.49870 -58.25400 104 ft 107 kts 44°
2026-05-06 18:53 6.50186 -58.25089 97 ft 22 kts 44°
2026-05-06 18:53 6.50280 -58.25057 95 ft 7 kts 323°
2026-05-06 18:53 6.50307 -58.25085 97 ft 5 kts 313°
2026-05-06 18:53 6.50328 -58.25108 96 ft 4 kts 313°
2026-05-06 18:54 6.50349 -58.25130 96 ft 3 kts 306°
2026-05-06 18:54 6.50341 -58.25161 95 ft 7 kts 231°
2026-05-06 18:54 6.50321 -58.25190 96 ft 4 kts 264°
2026-05-06 18:54 6.50330 -58.25207 96 ft 3 kts 307°
2026-05-06 18:55 6.50350 -58.25228 96 ft 3 kts 315°
2026-05-06 18:55 6.50350 -58.25229 96 ft 0 kts 315°